When you browse on this site, cookies collect data to enhance your experience and personalize the content and advertising you see.
Visit our Privacy Policy to learn more. By continuing to use the site, you agree to this use of cookies and data.
  • In United Kingdom
  • List of Countries
  • For 7 days
  • Water Temperature
  • Weather Map
  • Weather Widgets
  • user-avatar
    Login

    Hourly Weather Bruges

    Today, 5 June, Friday

    Time Temperature Precipitation Wind Pressure Humidity
    00:00 +7°C° 0 mm 4 mps 748 mmHg 89%
    01:00 +7°C° 0.2 mm 5 mps 747 mmHg 87%
    02:00 +8°C° 0.2 mm 5 mps 746 mmHg 85%
    03:00 +9°C° 0.2 mm 6 mps 746 mmHg 84%
    04:00 +9°C° 0.7 mm 6 mps 745 mmHg 84%
    05:00 +10°C° 0.7 mm 7 mps 744 mmHg 84%
    06:00 +11°C° 0.7 mm 8 mps 744 mmHg 85%
    07:00 +11°C° 0.5 mm 8 mps 744 mmHg 80%
    08:00 +11°C° 0.5 mm 9 mps 743 mmHg 76%
    09:00 +12°C° 0.5 mm 9 mps 743 mmHg 72%
    10:00 +12°C° 0.4 mm 9 mps 743 mmHg 70%
    11:00 +12°C° 0.4 mm 9 mps 743 mmHg 69%
    12:00 +12°C° 0.4 mm 9 mps 744 mmHg 67%
    13:00 +11°C° 0.5 mm 8 mps 744 mmHg 71%
    14:00 +11°C° 0.5 mm 7 mps 744 mmHg 74%
    15:00 +10°C° 0.5 mm 6 mps 745 mmHg 78%
    16:00 +10°C° 0.3 mm 6 mps 745 mmHg 78%
    17:00 +10°C° 0.3 mm 6 mps 745 mmHg 79%
    18:00 +10°C° 0.3 mm 6 mps 746 mmHg 79%
    19:00 +9°C° 0.1 mm 6 mps 746 mmHg 80%
    20:00 +9°C° 0.1 mm 6 mps 746 mmHg 81%
    21:00 +8°C° 0.1 mm 6 mps 747 mmHg 82%
    22:00 +8°C° 0.3 mm 6 mps 747 mmHg 83%
    23:00 +8°C° 0.3 mm 6 mps 747 mmHg 84%

    Tomorrow, 6 June, Saturday

    Time Temperature Precipitation Wind Pressure Humidity
    00:00 +8°C° 0.3 mm 6 mps 747 mmHg 85%
    01:00 +7°C° 0.3 mm 6 mps 747 mmHg 85%
    02:00 +7°C° 0.3 mm 6 mps 747 mmHg 86%
    03:00 +7°C° 0.3 mm 6 mps 747 mmHg 86%
    04:00 +6°C° 0.1 mm 7 mps 747 mmHg 82%
    05:00 +7°C° 0.1 mm 8 mps 747 mmHg 78%
    06:00 +7°C° 0.1 mm 8 mps 747 mmHg 75%
    07:00 +8°C° 0 mm 10 mps 747 mmHg 67%
    08:00 +11°C° 0 mm 11 mps 748 mmHg 59%
    09:00 +12°C° 0 mm 12 mps 748 mmHg 51%
    10:00 +12°C° 0 mm 12 mps 748 mmHg 51%
    11:00 +13°C° 0 mm 12 mps 748 mmHg 52%
    12:00 +13°C° 0 mm 13 mps 747 mmHg 52%
    13:00 +13°C° 0.1 mm 12 mps 748 mmHg 55%
    14:00 +13°C° 0.1 mm 12 mps 748 mmHg 58%
    15:00 +12°C° 0.1 mm 12 mps 748 mmHg 61%
    16:00 +12°C° 0.3 mm 11 mps 748 mmHg 68%
    17:00 +11°C° 0.3 mm 11 mps 748 mmHg 75%
    18:00 +9°C° 0.3 mm 10 mps 748 mmHg 82%
    19:00 +10°C° 0.2 mm 9 mps 748 mmHg 83%
    20:00 +10°C° 0.2 mm 9 mps 748 mmHg 85%
    21:00 +10°C° 0.2 mm 8 mps 749 mmHg 87%
    22:00 +10°C° 0.3 mm 7 mps 749 mmHg 88%
    23:00 +9°C° 0.3 mm 6 mps 749 mmHg 89%

    Day after tomorrow, 7 June, Sunday

    Time Temperature Precipitation Wind Pressure Humidity
    00:00 +9°C° 0.3 mm 6 mps 749 mmHg 90%
    01:00 +9°C° 0 mm 5 mps 750 mmHg 89%
    02:00 +8°C° 0 mm 5 mps 750 mmHg 89%
    03:00 +8°C° 0 mm 5 mps 750 mmHg 88%
    04:00 +9°C° 0.1 mm 5 mps 751 mmHg 86%
    05:00 +10°C° 0.1 mm 5 mps 752 mmHg 84%
    06:00 +10°C° 0.1 mm 6 mps 752 mmHg 82%
    07:00 +13°C° 0.1 mm 6 mps 753 mmHg 77%
    08:00 +14°C° 0.1 mm 6 mps 753 mmHg 72%
    09:00 +15°C° 0.1 mm 5 mps 754 mmHg 67%
    10:00 +16°C° 0 mm 5 mps 754 mmHg 62%
    11:00 +17°C° 0 mm 5 mps 754 mmHg 58%
    12:00 +19°C° 0 mm 5 mps 754 mmHg 53%
    13:00 +19°C° 0.1 mm 5 mps 754 mmHg 55%
    14:00 +19°C° 0.1 mm 6 mps 754 mmHg 57%
    15:00 +19°C° 0.1 mm 6 mps 754 mmHg 60%
    16:00 +17°C° 0.1 mm 6 mps 754 mmHg 62%
    17:00 +16°C° 0.1 mm 6 mps 755 mmHg 65%
    18:00 +16°C° 0.1 mm 5 mps 755 mmHg 68%
    19:00 +14°C° 0.1 mm 5 mps 755 mmHg 75%
    20:00 +13°C° 0.1 mm 4 mps 756 mmHg 81%
    21:00 +12°C° 0.1 mm 4 mps 757 mmHg 88%
    22:00 +12°C° 0.1 mm 4 mps 757 mmHg 89%
    23:00 +12°C° 0.1 mm 4 mps 757 mmHg 91%

    8 June, Monday

    Time Temperature Precipitation Wind Pressure Humidity
    00:00 +12°C° 0.1 mm 4 mps 757 mmHg 92%
    01:00 +12°C° 0.1 mm 4 mps 757 mmHg 92%
    02:00 +12°C° 0.1 mm 4 mps 757 mmHg 92%
    03:00 +12°C° 0.1 mm 4 mps 757 mmHg 92%
    04:00 +12°C° 0.2 mm 5 mps 757 mmHg 90%
    05:00 +12°C° 0.2 mm 5 mps 758 mmHg 89%
    06:00 +13°C° 0.2 mm 6 mps 758 mmHg 88%
    07:00 +13°C° 0.2 mm 6 mps 758 mmHg 86%
    08:00 +14°C° 0.2 mm 6 mps 759 mmHg 83%
    09:00 +14°C° 0.2 mm 6 mps 759 mmHg 81%
    10:00 +15°C° 0.2 mm 6 mps 759 mmHg 77%
    11:00 +15°C° 0.2 mm 7 mps 759 mmHg 73%
    12:00 +16°C° 0.2 mm 7 mps 759 mmHg 69%
    13:00 +16°C° 0.1 mm 7 mps 760 mmHg 69%
    14:00 +16°C° 0.1 mm 8 mps 760 mmHg 69%
    15:00 +15°C° 0.1 mm 8 mps 760 mmHg 69%
    16:00 +15°C° 0 mm 8 mps 760 mmHg 71%
    17:00 +13°C° 0 mm 8 mps 760 mmHg 73%
    18:00 +13°C° 0 mm 8 mps 760 mmHg 76%
    19:00 +12°C° 0 mm 7 mps 761 mmHg 78%
    20:00 +12°C° 0 mm 7 mps 761 mmHg 81%
    21:00 +11°C° 0 mm 6 mps 762 mmHg 84%
    22:00 +11°C° 0.1 mm 6 mps 762 mmHg 85%
    23:00 +12°C° 0.1 mm 5 mps 762 mmHg 87%

    9 June, Tuesday

    Time Temperature Precipitation Wind Pressure Humidity
    00:00 +10°C° 0.1 mm 5 mps 762 mmHg 89%
    01:00 +10°C° 0 mm 5 mps 762 mmHg 90%
    02:00 +10°C° 0 mm 5 mps 762 mmHg 90%
    03:00 +10°C° 0 mm 5 mps 762 mmHg 91%
    04:00 +12°C° 0.1 mm 5 mps 762 mmHg 89%
    05:00 +11°C° 0.1 mm 6 mps 762 mmHg 87%
    06:00 +13°C° 0.1 mm 6 mps 763 mmHg 85%
    07:00 +14°C° 0.2 mm 6 mps 763 mmHg 83%
    08:00 +14°C° 0.2 mm 6 mps 763 mmHg 81%
    09:00 +15°C° 0.2 mm 7 mps 763 mmHg 79%
    10:00 +15°C° 0.2 mm 7 mps 763 mmHg 78%
    11:00 +15°C° 0.2 mm 7 mps 763 mmHg 76%
    12:00 +16°C° 0.2 mm 7 mps 763 mmHg 75%
    13:00 +16°C° 0 mm 7 mps 763 mmHg 72%
    14:00 +16°C° 0 mm 7 mps 763 mmHg 68%
    15:00 +16°C° 0 mm 8 mps 763 mmHg 65%
    16:00 +16°C° 0 mm 7 mps 763 mmHg 67%
    17:00 +15°C° 0 mm 7 mps 763 mmHg 68%
    18:00 +14°C° 0 mm 7 mps 764 mmHg 70%
    19:00 +14°C° 0 mm 7 mps 764 mmHg 74%
    20:00 +13°C° 0 mm 6 mps 764 mmHg 78%
    21:00 +11°C° 0 mm 6 mps 765 mmHg 82%
    22:00 +10°C° 0 mm 6 mps 765 mmHg 84%
    23:00 +10°C° 0 mm 5 mps 765 mmHg 85%

    10 June, Wednesday

    Time Temperature Precipitation Wind Pressure Humidity
    00:00 +10°C° 0 mm 5 mps 765 mmHg 86%
    01:00 +10°C° 0 mm 5 mps 765 mmHg 87%
    02:00 +9°C° 0 mm 5 mps 765 mmHg 87%
    03:00 +9°C° 0 mm 5 mps 765 mmHg 87%
    04:00 +10°C° 0 mm 5 mps 765 mmHg 84%
    05:00 +12°C° 0 mm 5 mps 765 mmHg 80%
    06:00 +13°C° 0 mm 6 mps 765 mmHg 77%
    07:00 +13°C° 0 mm 6 mps 766 mmHg 76%
    08:00 +14°C° 0 mm 6 mps 766 mmHg 75%
    09:00 +14°C° 0 mm 6 mps 766 mmHg 74%
    10:00 +14°C° 0 mm 6 mps 766 mmHg 74%
    11:00 +15°C° 0 mm 6 mps 766 mmHg 74%
    12:00 +15°C° 0 mm 6 mps 766 mmHg 74%
    13:00 +15°C° 0 mm 6 mps 766 mmHg 74%
    14:00 +15°C° 0 mm 6 mps 766 mmHg 74%
    15:00 +15°C° 0 mm 6 mps 766 mmHg 74%
    16:00 +15°C° 0 mm 6 mps 766 mmHg 76%
    17:00 +14°C° 0 mm 6 mps 766 mmHg 79%
    18:00 +14°C° 0 mm 6 mps 766 mmHg 81%
    19:00 +14°C° 0 mm 6 mps 766 mmHg 83%
    20:00 +13°C° 0 mm 5 mps 767 mmHg 85%
    21:00 +13°C° 0 mm 5 mps 767 mmHg 87%
    22:00 +13°C° 0 mm 5 mps 767 mmHg 88%
    23:00 +13°C° 0 mm 5 mps 767 mmHg 89%
    Show more